Dallas Addison, TX

3:10 PM CST on November 24, 2017 (GMT -0600)
Addison

Weather History for KADS - November, 2012

Change the Weather History Date:

Friday, November 2, 2012

  Actual Average Record
Temperature  
Mean Temperature 74 °F -  
Max Temperature 86 °F 67 °F 90 °F (2017)
Min Temperature 62 °F 52 °F 37 °F (1996)
Cooling Degree Days 9    
Growing Degree Days 24 (Base 50)    
Moisture  
Dew Point 50 °F    
Average Humidity 48    
Maximum Humidity 68    
Minimum Humidity 23    
Precipitation  
Precipitation 0.00 in - - ()
Sea Level Pressure  
Sea Level Pressure 29.95 in    
Wind  
Wind Speed 6 mph (SSW)    
Max Wind Speed 13 mph    
Max Gust Speed 22 mph    
Visibility 11 miles    
Events      
Averages and records for this station are not official NWS values.
T = Trace of Precipitation, MM = Missing Value Source: NWS Daily Summary

Daily Weather History Graph

Daily Weather History Graph

Search for Another Location

Airport or City:

Trip Planner

Search our weather history database for the weather conditions in past years. The results will help you decide how hot, cold, wet, or windy it might be!

Date:

Astronomy

Nov. 02, 2012 Rise Set
Actual Time 7:46 AM CDT 6:34 PM CDT
Civil Twilight 7:21 AM CDT 7:00 PM CDT
Nautical Twilight 6:51 AM CDT 7:29 PM CDT
Astronomical Twilight 6:22 AM CDT 7:58 PM CDT
Moon 9:29 PM CDT (11/2) 11:01 AM CDT (11/2)
Length of Visible Light 11h 39m
Length of Day
10h 48m
Waning Gibbous, 87% of the Moon is Illuminated
Nov 2
Waning Gibbous
Nov 6
Last Quarter
Nov 13
New
Nov 20
First Quarter
Nov 28
Full

Hourly Weather History & Observations

Time (CDT) Temp. Heat Index Dew Point Humidity Pressure Visibility Wind Dir Wind Speed Gust Speed Precip Events Conditions
12:15 AM 71.6 °F - 50.0 °F 46% 29.94 in 10.0 mi SW 6.9 mph - N/A   Clear
12:35 AM 71.6 °F - 48.2 °F 43% 29.94 in 10.0 mi SW 5.8 mph - N/A   Clear
12:55 AM 71.6 °F - 48.2 °F 43% 29.94 in 10.0 mi SW 8.1 mph - N/A   Clear
1:15 AM 69.8 °F - 48.2 °F 46% 29.94 in 10.0 mi SW 5.8 mph - N/A   Clear
1:35 AM 69.8 °F - 46.4 °F 43% 29.94 in 10.0 mi SW 4.6 mph - N/A   Clear
1:55 AM 69.8 °F - 46.4 °F 43% 29.94 in 10.0 mi SW 3.5 mph - N/A   Clear
2:15 AM 68.0 °F - 46.4 °F 46% 29.94 in 10.0 mi SSW 3.5 mph - N/A   Clear
2:35 AM 68.0 °F - 48.2 °F 49% 29.94 in 10.0 mi SW 3.5 mph - N/A   Clear
2:55 AM 66.2 °F - 48.2 °F 52% 29.94 in 10.0 mi Calm Calm - N/A   Clear
3:15 AM 66.2 °F - 48.2 °F 52% 29.94 in 10.0 mi SW 4.6 mph - N/A   Clear
3:35 AM 64.4 °F - 48.2 °F 56% 29.94 in 10.0 mi SW 3.5 mph - N/A   Clear
3:55 AM 64.4 °F - 48.2 °F 56% 29.94 in 10.0 mi Calm Calm - N/A   Clear
4:15 AM 62.6 °F - 48.2 °F 59% 29.94 in 10.0 mi Calm Calm - N/A   Clear
4:35 AM 62.6 °F - 48.2 °F 59% 29.94 in 10.0 mi Calm Calm - N/A   Clear
4:55 AM 62.6 °F - 50.0 °F 63% 29.95 in 10.0 mi Calm Calm - N/A   Clear
5:15 AM 62.6 °F - 48.2 °F 59% 29.95 in 10.0 mi SSW 3.5 mph - N/A   Clear
5:35 AM 62.6 °F - 48.2 °F 59% 29.95 in 10.0 mi Calm Calm - N/A   Clear
5:47 AM 62.6 °F - 50.0 °F 63% 29.96 in 13.0 mi South 5.8 mph - N/A   Clear
5:55 AM 62.6 °F - 48.2 °F 59% 29.95 in 10.0 mi SSW 3.5 mph - N/A   Clear
6:55 AM 62.6 °F - 50.0 °F 63% 29.97 in 13.0 mi SSW 4.6 mph - N/A   Clear
7:49 AM 62.6 °F - 50.0 °F 63% 29.98 in 15.0 mi SSW 3.5 mph - N/A   Clear
8:47 AM 62.6 °F - 51.8 °F 68% 30.00 in 15.0 mi SSW 3.5 mph - N/A   Clear
9:47 AM 68.0 °F - 53.6 °F 60% 30.01 in 15.0 mi WSW 6.9 mph - N/A   Clear
10:48 AM 73.4 °F - 55.4 °F 53% 30.13 in 13.0 mi SW 9.2 mph - N/A   Clear
11:47 AM 77.0 °F - 57.2 °F 50% 30.02 in 13.0 mi SSW 10.4 mph 18.4 mph N/A   Partly Cloudy
12:55 PM 82.4 °F 82.0 °F 57.2 °F 42% 29.98 in 15.0 mi South 8.1 mph - N/A   Clear
1:55 PM 84.2 °F - 51.8 °F 33% 29.95 in 15.0 mi South 12.7 mph 21.9 mph N/A   Clear
2:55 PM 86.0 °F - 50.0 °F 29% 29.93 in 10.0 mi South 12.7 mph 19.6 mph N/A   Clear
3:48 PM 86.0 °F - 48.2 °F 27% 29.92 in 13.0 mi South 11.5 mph 19.6 mph N/A   Clear
4:47 PM 86.0 °F - 44.6 °F 23% 29.91 in 13.0 mi SSW 11.5 mph 18.4 mph N/A   Clear
5:47 PM 84.2 °F - 42.8 °F 23% 29.90 in 13.0 mi South 9.2 mph 16.1 mph N/A   Clear
6:47 PM 80.6 °F - 44.6 °F 28% 29.91 in 10.0 mi SSE 8.1 mph - N/A   Clear
7:47 PM 78.8 °F - 46.4 °F 32% 29.92 in 10.0 mi SSE 12.7 mph - N/A   Clear
8:47 PM 77.0 °F - 50.0 °F 39% 29.94 in 10.0 mi SSE 12.7 mph 19.6 mph N/A   Clear
9:47 PM 75.2 °F - 51.8 °F 44% 29.95 in 10.0 mi SSE 12.7 mph 18.4 mph N/A   Clear
10:15 PM 75.2 °F - 51.8 °F 44% 29.95 in 10.0 mi South 9.2 mph - N/A   Clear
10:35 PM 73.4 °F - 51.8 °F 47% 29.95 in 10.0 mi South 9.2 mph - N/A   Clear
10:55 PM 73.4 °F - 51.8 °F 47% 29.95 in 10.0 mi South 6.9 mph 16.1 mph N/A   Clear
11:15 PM 73.4 °F - 51.8 °F 47% 29.96 in 10.0 mi South 8.1 mph - N/A   Clear
11:35 PM 73.4 °F - 51.8 °F 47% 29.96 in 10.0 mi South 9.2 mph - N/A   Clear
11:55 PM 73.4 °F - 53.6 °F 50% 29.95 in 10.0 mi South 9.2 mph - N/A   Clear